This is the latest recevied weather packets stored in our database for station/object S56WDN-10. If no packets are shown the sender has not sent any weather packets the latest 10 day(s).
| Time | Temp. | Humidity | Pressure | Rain* | Wind** | Luminosity | Snow |
|---|---|---|---|---|---|---|---|
| 1777647729 | 21.67° C | 35% | 1024.1 hPa | 0 mm | - | - | - |
| 1777647429 | 21.67° C | 36% | 1024.3 hPa | 0 mm | - | - | - |
| 1777647130 | 21.67° C | 36% | 1024.3 hPa | 0 mm | - | - | - |
| 1777646829 | 21.11° C | 35% | 1024.4 hPa | 0 mm | - | - | - |
| 1777646529 | 21.11° C | 35% | 1024.3 hPa | 0 mm | - | - | - |
| 1777646229 | 21.67° C | 35% | 1024.2 hPa | 0 mm | - | - | - |
| 1777645930 | 21.67° C | 35% | 1024.3 hPa | 0 mm | - | - | - |
| 1777645630 | 21.67° C | 35% | 1024.5 hPa | 0 mm | - | - | - |
| 1777645329 | 22.22° C | 36% | 1024.5 hPa | 0 mm | - | - | - |
| 1777645030 | 21.67° C | 36% | 1024.6 hPa | 0 mm | - | - | - |
| 1777644729 | 21.67° C | 36% | 1024.6 hPa | 0 mm | - | - | - |
| 1777644429 | 21.67° C | 36% | 1024.6 hPa | 0 mm | - | - | - |
| 1777644129 | 21.11° C | 36% | 1024.7 hPa | 0 mm | - | - | - |
| 1777643833 | 20.56° C | 38% | 1024.6 hPa | 0 mm | - | - | - |
| 1777643529 | 20.56° C | 37% | 1024.7 hPa | 0 mm | - | - | - |
| 1777643230 | 20° C | 38% | 1024.7 hPa | 0 mm | - | - | - |
| 1777642929 | 20.56° C | 37% | 1024.7 hPa | 0 mm | - | - | - |
| 1777642629 | 20.56° C | 37% | 1025 hPa | 0 mm | - | - | - |
| 1777642329 | 20.56° C | 37% | 1025 hPa | 0 mm | - | - | - |
| 1777642030 | 20.56° C | 37% | 1024.9 hPa | 0 mm | - | - | - |
| 1777641729 | 20.56° C | 37% | 1025 hPa | 0 mm | - | - | - |
| 1777641429 | 20° C | 38% | 1025.1 hPa | 0 mm | - | - | - |
| 1777641130 | 19.44° C | 37% | 1025.2 hPa | 0 mm | - | - | - |
| 1777640830 | 19.44° C | 35% | 1025.3 hPa | 0 mm | - | - | - |
| 1777640530 | 20° C | 36% | 1025.3 hPa | 0 mm | - | - | - |
* Rain latest hour (hover to see other rain measurements)
** Current wind speed in m/s (hover to see current wind gust speed)